Regional Weather Roundup
Issued by NWS Newport/Morehead, NC

Current Version | Previous Version | Text Only | Print | Product List | Glossary Off
Versions: 1 2 3 4 5 6 7 8 9 10 11 12 13 14 15 16 17 18 19 20 21 22 23 24 25 26 27 28 29 30 31 32 33 34 35 36 37 38 39 40 41 42 43 44 45 46 47 48 49 50

000
ASUS42 KMHX 281224
RWRMHX
WEATHER ROUNDUP FOR EASTERN NORTH CAROLINA
NATIONAL WEATHER SERVICE NEWPORT/MOREHEAD CITY NC
800 AM EDT TUE APR 28 2015

NOTE: "FAIR" INDICATES FEW OR NO CLOUDS BELOW 12,000 FEET
WITH NO SIGNIFICANT WEATHER AND/OR OBSTRUCTIONS TO VISIBILITY

NCZ015>017-031-032-045>047-102-103-281300-
NORTH COAST

CITY           SKY/WX    TMP DP  RH WIND       PRES   REMARKS
EDENTON        SUNNY     50  39  65 N14       29.92F
ELIZABETH CITY SUNNY     48  38  68 NW9       29.91S
KITTY HAWK     SUNNY     50  40  68 NW7       29.89R
MANTEO         SUNNY     51  40  65 N12G18    29.90S

$$

NCZ045>047-081-094-103-104-281300-
CENTRAL COAST

CITY           SKY/WX    TMP DP  RH WIND       PRES   REMARKS
FRISCO         MOSUNNY   51  40  65 N8        29.89S
SWANQUARTER      N/A     52 N/A N/A NE5G14    29.88S

$$

NCZ095-097-098-100-101-281300-
SOUTHERN COAST

CITY           SKY/WX    TMP DP  RH WIND       PRES   REMARKS
BEAUFORT       PTSUNNY   51  40  65 N9        29.94R
CEDAR ISLAND     N/A     54 N/A N/A NW17G23   29.97S
JACKSONVILLE   PTSUNNY   51  37  58 N9        29.95R
PINEY ISLAND   MOSUNNY  N/A N/A N/A N12G21    29.92R
WILMINGTON     MOSUNNY   52  38  58 N9        29.96R


$$

NCZ011>013-027>030-043-044-078>080-089-090>093-098-281300-
COASTAL PLAIN

CITY           SKY/WX    TMP DP  RH WIND       PRES   REMARKS
AHOSKIE        SUNNY     46  36  69 N5        29.95S
CLINTON        PTSUNNY   48  39  71 N5        29.98R
ELIZABETHTOWN  MOSUNNY   49  38  67 CALM      29.97R
GOLDSBORO      MOSUNNY   50  37  59 N8        29.95R
GREENVILLE     MOSUNNY   48  37  66 N7        29.97R
HAVELOCK       PTSUNNY   52  37  56 N12       29.95R
KENANSVILLE    PTSUNNY   49  38  65 N5        29.98R
KINSTON        MOSUNNY   48  39  71 N6        29.96R
NEW BERN       PTSUNNY   50  37  61 N8        29.96R
RICHLANDS      PTSUNNY   50  36  57 N7        29.97R
ROCKY MOUNT    SUNNY     48  37  65 N12       29.96R
WASHINGTON     MOSUNNY   48  39  71 NW6       29.95R
WHITEVILLE     MOSUNNY   50  39  65 N3        29.96R

$$

AMZ130-135-150-152-154-156-158-170-250-252-270-ANZ085-086-088-633-658-670-281300-
MARINE OBSERVATIONS

STATION/POSITION TIME  TEMP    WIND        PRES    WAVE   SWELL
                       AIR SEA DIR/SP/G            HT/PER HT/PER
                 (UTC) (F)     (DEG/KT/KT) (MB)    (FT/S) (FT/S)
CHESAPEAKE LIGHT 1200   50     330/ 23/ 25 1012.1
64 E VA BEACH    1150   52 54  330/ 23/ 27 1009.9    6/ 6
DUCK             1200   49 54  330/ 14/ 18 1011.0
2 E DUCK         1111      54                N/A     3/ 5
OREGON INLET     1200   51 57  330/ 12/ 18 1011.8
13E OREGON INLT  NOT AVBL
HATTERAS CG      1200   53 61  320/ 14/ 17 1011.8
DIAMOND BUOY     1150   56 74  340/ 14/ 19 1012.0    4/ 4   2/ 7
CAPE LOOKOUT     1200   53     350/ 13/ 16 1013.2
BEAUFORT LAB     1200   52 62   10/ 12/ 16 1012.8
27 SE WRIGHTSVLE 1200   56 72   30/ 16/ 19   N/A
5 SE WRIGHTSVLE  1108   57 65   30/ 17/ 25 1013.4
225 S CAPE HAT   1150   68 70  340/ 14/ 17 1011.0    4/ 7   3/ 7
41 SE CHARLESTON 1150   65 72   40/ 17/ 19 1012.1    6/ 5

$$


USA.gov is the U.S. government's official web portal to all federal, state and local government web resources and services.